N531TJ KSGU-KDVT

Flight info

Callsign N531TJ
Flight time 1h 23m
Altitude 13000
Route KIDDR DSERT2
Aircraft BE58/L-SDFGRY/C

Departure

Time 2026-04-23 21:46
Airport St George Regional Airport (KSGU)

Arrival

Time 2026-04-23 23:10
Airport Phoenix Deer Valley Airport (KDVT)
Time Latitude Longitude Altitude Speed Heading
2026-04-23 21:42 37.04735 -113.50201 2861 ft 0 kts 296°
2026-04-23 21:44 37.04737 -113.50204 2861 ft 4 kts 296°
2026-04-23 21:45 37.04772 -113.50303 2858 ft 13 kts 294°
2026-04-23 21:45 37.04800 -113.50395 2858 ft 10 kts 279°
2026-04-23 21:45 37.04757 -113.50440 2856 ft 18 kts 204°
2026-04-23 21:45 37.04385 -113.50638 2854 ft 96 kts 203°
2026-04-23 21:46 37.03657 -113.51030 3050 ft 125 kts 203°
2026-04-23 21:46 37.02818 -113.51477 3432 ft 135 kts 202°
2026-04-23 21:46 37.01944 -113.51914 3902 ft 134 kts 200°
2026-04-23 21:46 37.01028 -113.52131 4353 ft 135 kts 183°
2026-04-23 21:47 37.00070 -113.52085 4678 ft 142 kts 178°
2026-04-23 21:47 36.99089 -113.51821 4992 ft 148 kts 165°
2026-04-23 21:47 36.98100 -113.51427 5345 ft 147 kts 165°
2026-04-23 21:47 36.97132 -113.50959 5669 ft 151 kts 158°
2026-04-23 21:48 36.96172 -113.50411 6045 ft 151 kts 159°
2026-04-23 21:48 36.95256 -113.49784 6369 ft 152 kts 138°
2026-04-23 21:48 36.94687 -113.48669 6658 ft 153 kts 115°
2026-04-23 21:48 36.94206 -113.47495 6955 ft 151 kts 124°
2026-04-23 21:49 36.93511 -113.46466 6992 ft 165 kts 139°
2026-04-23 21:49 36.92565 -113.45575 6995 ft 174 kts 150°
2026-04-23 21:49 36.91533 -113.44886 7276 ft 163 kts 157°
2026-04-23 21:49 36.90525 -113.44316 7562 ft 155 kts 159°
2026-04-23 21:50 36.89554 -113.43799 7840 ft 148 kts 160°
2026-04-23 21:50 36.88630 -113.43315 8085 ft 139 kts 159°
2026-04-23 21:50 36.87766 -113.42866 8394 ft 131 kts 159°
2026-04-23 21:50 36.86952 -113.42446 8700 ft 123 kts 159°
2026-04-23 21:51 36.86186 -113.42057 9007 ft 114 kts 159°
2026-04-23 21:51 36.85460 -113.41690 9205 ft 114 kts 161°
2026-04-23 21:51 36.84716 -113.41313 9341 ft 116 kts 161°
2026-04-23 21:51 36.83968 -113.40931 9471 ft 115 kts 160°
2026-04-23 21:52 36.83239 -113.40559 9596 ft 111 kts 159°
2026-04-23 21:52 36.82518 -113.40191 9729 ft 116 kts 159°
2026-04-23 21:52 36.81732 -113.39791 9865 ft 130 kts 161°
2026-04-23 21:52 36.80851 -113.39347 10001 ft 142 kts 161°
2026-04-23 21:53 36.79901 -113.38865 10122 ft 152 kts 160°
2026-04-23 21:53 36.78897 -113.38353 10244 ft 159 kts 160°
2026-04-23 21:53 36.77858 -113.37819 10359 ft 164 kts 160°
2026-04-23 21:53 36.76793 -113.37271 10465 ft 167 kts 159°
2026-04-23 21:54 36.75710 -113.36718 10583 ft 169 kts 160°
2026-04-23 21:54 36.74621 -113.36161 10687 ft 170 kts 159°
2026-04-23 21:54 36.73522 -113.35598 10805 ft 171 kts 160°
2026-04-23 21:54 36.72419 -113.35038 10920 ft 171 kts 159°
2026-04-23 21:55 36.71319 -113.34478 11043 ft 171 kts 160°
2026-04-23 21:55 36.70217 -113.33916 11167 ft 172 kts 161°
2026-04-23 21:55 36.69109 -113.33353 11300 ft 171 kts 160°
2026-04-23 21:55 36.68020 -113.32798 11499 ft 167 kts 160°
2026-04-23 21:56 36.66951 -113.32253 11705 ft 164 kts 160°
2026-04-23 21:56 36.65899 -113.31719 11906 ft 162 kts 160°
2026-04-23 21:56 36.64860 -113.31192 12111 ft 161 kts 160°
2026-04-23 21:56 36.63841 -113.30675 12313 ft 159 kts 161°
2026-04-23 21:57 36.62816 -113.30153 12517 ft 158 kts 160°
2026-04-23 21:57 36.61800 -113.29638 12723 ft 157 kts 161°
2026-04-23 21:57 36.60786 -113.29125 12888 ft 160 kts 161°
2026-04-23 21:57 36.59725 -113.28590 12909 ft 169 kts 161°
2026-04-23 21:58 36.58613 -113.28028 12921 ft 175 kts 160°
2026-04-23 21:58 36.57465 -113.27445 12927 ft 181 kts 159°
2026-04-23 21:58 36.56286 -113.26845 12924 ft 185 kts 160°
2026-04-23 21:58 36.55087 -113.26233 12923 ft 187 kts 159°
2026-04-23 21:59 36.53878 -113.25614 12911 ft 188 kts 159°
2026-04-23 21:59 36.52669 -113.24998 12919 ft 186 kts 158°
2026-04-23 21:59 36.51477 -113.24391 12920 ft 184 kts 159°
2026-04-23 22:00 36.49120 -113.23198 12909 ft 182 kts 159°
2026-04-23 22:00 36.47952 -113.22606 12908 ft 180 kts 158°
2026-04-23 22:00 36.46793 -113.22020 12912 ft 179 kts 159°
2026-04-23 22:00 36.45634 -113.21436 12918 ft 180 kts 159°
2026-04-23 22:01 36.44473 -113.20850 12919 ft 180 kts 159°
2026-04-23 22:01 36.43312 -113.20263 12920 ft 181 kts 159°
2026-04-23 22:01 36.42147 -113.19675 12913 ft 180 kts 159°
2026-04-23 22:01 36.40988 -113.19091 12905 ft 179 kts 159°
2026-04-23 22:02 36.39829 -113.18507 12909 ft 179 kts 158°
2026-04-23 22:02 36.38676 -113.17927 12908 ft 178 kts 159°
2026-04-23 22:02 36.37536 -113.17354 12916 ft 180 kts 159°
2026-04-23 22:02 36.36372 -113.16766 12911 ft 181 kts 159°
2026-04-23 22:03 36.35207 -113.16177 12919 ft 181 kts 159°
2026-04-23 22:03 36.34035 -113.15585 12917 ft 182 kts 159°
2026-04-23 22:03 36.32860 -113.14992 12910 ft 182 kts 159°
2026-04-23 22:03 36.31689 -113.14402 12904 ft 181 kts 159°
2026-04-23 22:04 36.30526 -113.13816 12905 ft 180 kts 159°
2026-04-23 22:04 36.29368 -113.13234 12907 ft 180 kts 159°
2026-04-23 22:04 36.28210 -113.12651 12911 ft 180 kts 159°
2026-04-23 22:04 36.27426 -113.12256 12914 ft 181 kts 159°
2026-04-23 22:05 36.25883 -113.11481 12915 ft 181 kts 159°
2026-04-23 22:05 36.25111 -113.11095 12910 ft 181 kts 159°
2026-04-23 22:05 36.23942 -113.10508 12907 ft 181 kts 160°
2026-04-23 22:05 36.22775 -113.09914 12905 ft 181 kts 159°
2026-04-23 22:06 36.21610 -113.09330 12906 ft 181 kts 159°
2026-04-23 22:06 36.20441 -113.08745 12913 ft 181 kts 160°
2026-04-23 22:06 36.19267 -113.08156 12899 ft 182 kts 159°
2026-04-23 22:06 36.18099 -113.07570 12906 ft 181 kts 159°
2026-04-23 22:07 36.16928 -113.06985 12907 ft 182 kts 159°
2026-04-23 22:07 36.15756 -113.06398 12911 ft 182 kts 159°
2026-04-23 22:07 36.14580 -113.05809 12910 ft 183 kts 160°
2026-04-23 22:07 36.13399 -113.05220 12913 ft 183 kts 160°
2026-04-23 22:08 36.12215 -113.04628 12904 ft 184 kts 159°
2026-04-23 22:08 36.11032 -113.04037 12899 ft 183 kts 159°
2026-04-23 22:08 36.09851 -113.03446 12900 ft 183 kts 159°
2026-04-23 22:08 36.08672 -113.02855 12899 ft 182 kts 159°
2026-04-23 22:09 36.07513 -113.02274 12895 ft 182 kts 159°
2026-04-23 22:09 36.06345 -113.01684 12888 ft 180 kts 159°
2026-04-23 22:09 36.05180 -113.01105 12899 ft 180 kts 160°
2026-04-23 22:09 36.04015 -113.00528 12905 ft 180 kts 160°
2026-04-23 22:10 36.02849 -112.99947 12907 ft 181 kts 159°
2026-04-23 22:10 36.01680 -112.99365 12905 ft 181 kts 159°
2026-04-23 22:10 36.00511 -112.98781 12905 ft 181 kts 159°
2026-04-23 22:10 35.99338 -112.98197 12904 ft 182 kts 159°
2026-04-23 22:11 35.98165 -112.97611 12903 ft 182 kts 160°
2026-04-23 22:11 35.96995 -112.97026 12899 ft 181 kts 159°
2026-04-23 22:11 35.95826 -112.96442 12903 ft 181 kts 160°
2026-04-23 22:11 35.94661 -112.95862 12905 ft 181 kts 159°
2026-04-23 22:12 35.93507 -112.95288 12901 ft 181 kts 159°
2026-04-23 22:12 35.92337 -112.94705 12897 ft 181 kts 160°
2026-04-23 22:12 35.91166 -112.94123 12905 ft 182 kts 160°
2026-04-23 22:12 35.89990 -112.93538 12906 ft 182 kts 160°
2026-04-23 22:13 35.88814 -112.92953 12906 ft 183 kts 160°
2026-04-23 22:13 35.87636 -112.92367 12902 ft 183 kts 160°
2026-04-23 22:13 35.86449 -112.91777 12862 ft 184 kts 160°
2026-04-23 22:13 35.85259 -112.91186 12844 ft 184 kts 160°
2026-04-23 22:14 35.84070 -112.90595 12831 ft 184 kts 160°
2026-04-23 22:14 35.82883 -112.90005 12829 ft 184 kts 160°
2026-04-23 22:14 35.81695 -112.89415 12831 ft 184 kts 160°
2026-04-23 22:14 35.80505 -112.88824 12827 ft 184 kts 160°
2026-04-23 22:15 35.79317 -112.88234 12825 ft 184 kts 160°
2026-04-23 22:15 35.78129 -112.87645 12828 ft 184 kts 160°
2026-04-23 22:15 35.76941 -112.87056 12828 ft 184 kts 160°
2026-04-23 22:15 35.75751 -112.86467 12830 ft 184 kts 160°
2026-04-23 22:16 35.74565 -112.85879 12825 ft 183 kts 160°
2026-04-23 22:16 35.73382 -112.85294 12827 ft 183 kts 160°
2026-04-23 22:16 35.72197 -112.84708 12821 ft 183 kts 160°
2026-04-23 22:16 35.71016 -112.84123 12819 ft 183 kts 160°
2026-04-23 22:17 35.69832 -112.83537 12825 ft 183 kts 160°
2026-04-23 22:17 35.68661 -112.82957 12826 ft 185 kts 160°
2026-04-23 22:17 35.67467 -112.82364 12821 ft 185 kts 161°
2026-04-23 22:17 35.66274 -112.81774 12820 ft 185 kts 161°
2026-04-23 22:18 35.65080 -112.81184 12822 ft 185 kts 160°
2026-04-23 22:18 35.63883 -112.80594 12819 ft 185 kts 160°
2026-04-23 22:18 35.62683 -112.80002 12821 ft 186 kts 160°
2026-04-23 22:18 35.61483 -112.79410 12812 ft 186 kts 160°
2026-04-23 22:19 35.60285 -112.78817 12816 ft 185 kts 160°
2026-04-23 22:19 35.59088 -112.78225 12821 ft 186 kts 160°
2026-04-23 22:19 35.57889 -112.77624 12817 ft 186 kts 161°
2026-04-23 22:19 35.56687 -112.77035 12820 ft 186 kts 161°
2026-04-23 22:20 35.55479 -112.76444 12816 ft 187 kts 161°
2026-04-23 22:20 35.54273 -112.75851 12813 ft 187 kts 161°
2026-04-23 22:20 35.53066 -112.75258 12814 ft 187 kts 161°
2026-04-23 22:20 35.51859 -112.74665 12813 ft 187 kts 161°
2026-04-23 22:21 35.50656 -112.74073 12812 ft 186 kts 161°
2026-04-23 22:21 35.49452 -112.73482 12797 ft 186 kts 161°
2026-04-23 22:21 35.48252 -112.72892 12803 ft 186 kts 161°
2026-04-23 22:21 35.47068 -112.72309 12806 ft 186 kts 161°
2026-04-23 22:22 35.45867 -112.71717 12809 ft 186 kts 161°
2026-04-23 22:22 35.44666 -112.71128 12809 ft 186 kts 161°
2026-04-23 22:22 35.43465 -112.70537 12812 ft 186 kts 160°
2026-04-23 22:22 35.42263 -112.69947 12807 ft 186 kts 162°
2026-04-23 22:23 35.41061 -112.69356 12801 ft 186 kts 162°
2026-04-23 22:23 35.39863 -112.68768 12802 ft 186 kts 161°
2026-04-23 22:23 35.38662 -112.68179 12807 ft 186 kts 161°
2026-04-23 22:23 35.37454 -112.67586 12804 ft 186 kts 161°
2026-04-23 22:24 35.36251 -112.66997 12801 ft 186 kts 161°
2026-04-23 22:24 35.35045 -112.66406 12801 ft 187 kts 161°
2026-04-23 22:24 35.33840 -112.65814 12805 ft 187 kts 161°
2026-04-23 22:24 35.32633 -112.65223 12797 ft 187 kts 161°
2026-04-23 22:25 35.31423 -112.64631 12797 ft 188 kts 161°
2026-04-23 22:25 35.30206 -112.64035 12790 ft 188 kts 161°
2026-04-23 22:25 35.29014 -112.63451 12787 ft 187 kts 161°
2026-04-23 22:25 35.27812 -112.62861 12781 ft 185 kts 163°
2026-04-23 22:26 35.26618 -112.62277 12790 ft 184 kts 163°
2026-04-23 22:26 35.25427 -112.61695 12792 ft 184 kts 163°
2026-04-23 22:26 35.24238 -112.61115 12793 ft 184 kts 163°
2026-04-23 22:26 35.23051 -112.60536 12788 ft 184 kts 163°
2026-04-23 22:27 35.21864 -112.59956 12789 ft 184 kts 163°
2026-04-23 22:27 35.20675 -112.59376 12786 ft 184 kts 163°
2026-04-23 22:27 35.19489 -112.58797 12788 ft 184 kts 163°
2026-04-23 22:27 35.18300 -112.58217 12799 ft 184 kts 163°
2026-04-23 22:28 35.17109 -112.57636 12797 ft 184 kts 163°
2026-04-23 22:28 35.15917 -112.57055 12795 ft 185 kts 163°
2026-04-23 22:28 35.14723 -112.56473 12788 ft 184 kts 163°
2026-04-23 22:28 35.13531 -112.55891 12789 ft 185 kts 162°
2026-04-23 22:29 35.12337 -112.55310 12787 ft 184 kts 163°
2026-04-23 22:29 35.11162 -112.54737 12788 ft 184 kts 163°
2026-04-23 22:29 35.09969 -112.54156 12787 ft 184 kts 163°
2026-04-23 22:29 35.08781 -112.53577 12785 ft 184 kts 163°
2026-04-23 22:30 35.07591 -112.52997 12784 ft 184 kts 162°
2026-04-23 22:30 35.06401 -112.52419 12774 ft 185 kts 162°
2026-04-23 22:30 35.05202 -112.51837 12781 ft 186 kts 162°
2026-04-23 22:30 35.03988 -112.51248 12785 ft 188 kts 162°
2026-04-23 22:31 35.02762 -112.50655 12784 ft 189 kts 163°
2026-04-23 22:31 35.01552 -112.50067 12785 ft 190 kts 162°
2026-04-23 22:31 35.00320 -112.49466 12793 ft 191 kts 162°
2026-04-23 22:31 34.99078 -112.48863 12800 ft 192 kts 162°
2026-04-23 22:32 34.97831 -112.48256 12800 ft 193 kts 162°
2026-04-23 22:32 34.96583 -112.47651 12810 ft 193 kts 162°
2026-04-23 22:32 34.95335 -112.47041 12815 ft 194 kts 161°
2026-04-23 22:32 34.94191 -112.46148 12826 ft 199 kts 139°
2026-04-23 22:33 34.93309 -112.44840 12830 ft 200 kts 130°
2026-04-23 22:33 34.92477 -112.43480 12836 ft 200 kts 130°
2026-04-23 22:33 34.91643 -112.42121 12841 ft 200 kts 131°
2026-04-23 22:33 34.90804 -112.40765 12847 ft 201 kts 131°
2026-04-23 22:34 34.89962 -112.39409 12851 ft 201 kts 131°
2026-04-23 22:34 34.89119 -112.38046 12860 ft 202 kts 131°
2026-04-23 22:34 34.88280 -112.36694 12859 ft 202 kts 131°
2026-04-23 22:34 34.87431 -112.35327 12864 ft 202 kts 131°
2026-04-23 22:35 34.86585 -112.33971 12853 ft 200 kts 130°
2026-04-23 22:35 34.85752 -112.32630 12865 ft 197 kts 130°
2026-04-23 22:35 34.84929 -112.31305 12868 ft 196 kts 131°
2026-04-23 22:35 34.84107 -112.29981 12871 ft 196 kts 131°
2026-04-23 22:36 34.83281 -112.28658 12870 ft 196 kts 131°
2026-04-23 22:36 34.82459 -112.27337 12866 ft 195 kts 132°
2026-04-23 22:36 34.81641 -112.26028 12865 ft 194 kts 131°
2026-04-23 22:36 34.80827 -112.24724 12870 ft 193 kts 130°
2026-04-23 22:37 34.80015 -112.23422 12870 ft 193 kts 130°
2026-04-23 22:37 34.79215 -112.22138 12870 ft 193 kts 130°
2026-04-23 22:37 34.78405 -112.20843 12864 ft 192 kts 130°
2026-04-23 22:37 34.77597 -112.19547 12858 ft 192 kts 130°
2026-04-23 22:38 34.76790 -112.18252 12852 ft 192 kts 130°
2026-04-23 22:38 34.75955 -112.16977 12878 ft 194 kts 131°
2026-04-23 22:38 34.75141 -112.15652 12875 ft 197 kts 129°
2026-04-23 22:38 34.74314 -112.14305 12869 ft 199 kts 130°
2026-04-23 22:39 34.73488 -112.12960 12844 ft 197 kts 132°
2026-04-23 22:39 34.72666 -112.11623 12842 ft 198 kts 132°
2026-04-23 22:39 34.71853 -112.10301 12822 ft 197 kts 131°
2026-04-23 22:39 34.71026 -112.08985 12824 ft 196 kts 132°
2026-04-23 22:40 34.70196 -112.07677 12811 ft 195 kts 132°
2026-04-23 22:40 34.69371 -112.06366 12817 ft 195 kts 132°
2026-04-23 22:40 34.67725 -112.03738 12822 ft 197 kts 131°
2026-04-23 22:41 34.66895 -112.02412 12823 ft 198 kts 131°
2026-04-23 22:41 34.66060 -112.01078 12826 ft 199 kts 131°
2026-04-23 22:41 34.65220 -111.99738 12821 ft 200 kts 130°
2026-04-23 22:41 34.64379 -111.98395 12819 ft 200 kts 130°
2026-04-23 22:42 34.63535 -111.97048 12820 ft 200 kts 130°
2026-04-23 22:42 34.62692 -111.95702 12818 ft 200 kts 131°
2026-04-23 22:42 34.61846 -111.94351 12818 ft 200 kts 130°
2026-04-23 22:42 34.61002 -111.93007 12826 ft 200 kts 130°
2026-04-23 22:43 34.60157 -111.91662 12824 ft 200 kts 130°
2026-04-23 22:43 34.59312 -111.90317 12821 ft 201 kts 130°
2026-04-23 22:43 34.58464 -111.88968 12819 ft 201 kts 131°
2026-04-23 22:43 34.57616 -111.87618 12816 ft 201 kts 131°
2026-04-23 22:44 34.56766 -111.86265 12812 ft 202 kts 131°
2026-04-23 22:44 34.55924 -111.84928 12810 ft 202 kts 131°
2026-04-23 22:44 34.55069 -111.83568 12806 ft 203 kts 131°
2026-04-23 22:44 34.54213 -111.82207 12801 ft 203 kts 131°
2026-04-23 22:45 34.53355 -111.80845 12799 ft 203 kts 131°
2026-04-23 22:45 34.52498 -111.79484 12801 ft 203 kts 131°
2026-04-23 22:45 34.51637 -111.78116 12795 ft 203 kts 132°
2026-04-23 22:45 34.50777 -111.76752 12795 ft 204 kts 132°
2026-04-23 22:46 34.49915 -111.75386 12782 ft 204 kts 131°
2026-04-23 22:46 34.49051 -111.74016 12784 ft 205 kts 131°
2026-04-23 22:46 34.48182 -111.72640 12786 ft 206 kts 131°
2026-04-23 22:46 34.47309 -111.71263 12789 ft 206 kts 131°
2026-04-23 22:47 34.46435 -111.69878 12792 ft 207 kts 131°
2026-04-23 22:47 34.45552 -111.68493 12788 ft 207 kts 134°
2026-04-23 22:47 34.44448 -111.67445 12782 ft 199 kts 161°
2026-04-23 22:47 34.43142 -111.67090 12783 ft 188 kts 186°
2026-04-23 22:48 34.41886 -111.67366 12781 ft 182 kts 203°
2026-04-23 22:48 34.40664 -111.67759 12778 ft 182 kts 200°
2026-04-23 22:48 34.39439 -111.68117 12784 ft 181 kts 200°
2026-04-23 22:48 34.38215 -111.68466 12794 ft 181 kts 200°
2026-04-23 22:49 34.36988 -111.68828 12796 ft 182 kts 201°
2026-04-23 22:49 34.35757 -111.69201 12797 ft 183 kts 200°
2026-04-23 22:49 34.34537 -111.69569 12795 ft 184 kts 200°
2026-04-23 22:49 34.33304 -111.69956 12785 ft 182 kts 201°
2026-04-23 22:50 34.32074 -111.70328 12780 ft 181 kts 200°
2026-04-23 22:50 34.30848 -111.70689 12795 ft 182 kts 200°
2026-04-23 22:50 34.29618 -111.71057 12788 ft 182 kts 200°
2026-04-23 22:50 34.28389 -111.71432 12800 ft 183 kts 201°
2026-04-23 22:51 34.27157 -111.71809 12780 ft 182 kts 201°
2026-04-23 22:51 34.25932 -111.72180 12789 ft 182 kts 201°
2026-04-23 22:51 34.25119 -111.72433 12789 ft 181 kts 201°
2026-04-23 22:51 34.23897 -111.72810 12789 ft 180 kts 201°
2026-04-23 22:52 34.22685 -111.73171 12812 ft 180 kts 200°
2026-04-23 22:52 34.21060 -111.73636 12787 ft 180 kts 203°
2026-04-23 22:52 34.19860 -111.74026 12787 ft 179 kts 202°
2026-04-23 22:52 34.19061 -111.74274 12782 ft 178 kts 201°
2026-04-23 22:53 34.17866 -111.74632 12789 ft 176 kts 201°
2026-04-23 22:53 34.16672 -111.74986 12803 ft 177 kts 201°
2026-04-23 22:53 34.15476 -111.75346 12793 ft 177 kts 201°
2026-04-23 22:53 34.14277 -111.75710 12801 ft 178 kts 201°
2026-04-23 22:54 34.13071 -111.76080 12803 ft 179 kts 201°
2026-04-23 22:54 34.11855 -111.76448 12795 ft 180 kts 201°
2026-04-23 22:54 34.10644 -111.76815 12791 ft 179 kts 201°
2026-04-23 22:54 34.09433 -111.77178 12799 ft 179 kts 201°
2026-04-23 22:55 34.08220 -111.77547 12785 ft 180 kts 202°
2026-04-23 22:55 34.07020 -111.77932 12728 ft 179 kts 202°
2026-04-23 22:55 34.05768 -111.78307 12544 ft 190 kts 200°
2026-04-23 22:55 34.04456 -111.78684 12333 ft 195 kts 200°
2026-04-23 22:56 34.03124 -111.79076 12134 ft 200 kts 200°
2026-04-23 22:56 34.01776 -111.79479 11928 ft 198 kts 200°
2026-04-23 22:56 34.00453 -111.79877 11712 ft 195 kts 200°
2026-04-23 22:56 33.99168 -111.80263 11491 ft 192 kts 200°
2026-04-23 22:57 33.97878 -111.80649 11297 ft 191 kts 200°
2026-04-23 22:57 33.96591 -111.81041 11116 ft 191 kts 200°
2026-04-23 22:57 33.95292 -111.81437 10934 ft 193 kts 200°
2026-04-23 22:57 33.93988 -111.81835 10748 ft 194 kts 200°
2026-04-23 22:58 33.92797 -111.82514 10549 ft 187 kts 223°
2026-04-23 22:58 33.91812 -111.83526 10359 ft 187 kts 226°
2026-04-23 22:58 33.90820 -111.84556 10174 ft 188 kts 225°
2026-04-23 22:58 33.89828 -111.85588 9969 ft 188 kts 226°
2026-04-23 22:59 33.88833 -111.86621 9795 ft 190 kts 226°
2026-04-23 22:59 33.87828 -111.87663 9601 ft 191 kts 224°
2026-04-23 22:59 33.86836 -111.88697 9380 ft 191 kts 226°
2026-04-23 22:59 33.85813 -111.89751 9188 ft 192 kts 224°
2026-04-23 23:00 33.84803 -111.90800 8980 ft 192 kts 224°
2026-04-23 23:00 33.83789 -111.91852 8769 ft 191 kts 225°
2026-04-23 23:00 33.82808 -111.92867 8566 ft 186 kts 223°
2026-04-23 23:00 33.81838 -111.93867 8359 ft 182 kts 225°
2026-04-23 23:01 33.80882 -111.94856 8168 ft 180 kts 225°
2026-04-23 23:01 33.79934 -111.95836 7966 ft 179 kts 223°
2026-04-23 23:01 33.79054 -111.96879 7750 ft 176 kts 241°
2026-04-23 23:01 33.78763 -111.98274 7562 ft 173 kts 258°
2026-04-23 23:02 33.78118 -111.99453 7365 ft 175 kts 216°
2026-04-23 23:02 33.76918 -111.99731 7166 ft 186 kts 174°
2026-04-23 23:02 33.75779 -111.98965 6976 ft 195 kts 136°
2026-04-23 23:02 33.75223 -111.97462 6793 ft 202 kts 106°
2026-04-23 23:03 33.74564 -111.96059 6623 ft 190 kts 145°
2026-04-23 23:03 33.73629 -111.94930 6455 ft 193 kts 137°
2026-04-23 23:03 33.72752 -111.93702 6268 ft 194 kts 136°
2026-04-23 23:03 33.71861 -111.92478 6058 ft 194 kts 136°
2026-04-23 23:04 33.70965 -111.91264 5859 ft 194 kts 136°
2026-04-23 23:04 33.70075 -111.90055 5663 ft 193 kts 136°
2026-04-23 23:04 33.69158 -111.88896 5468 ft 189 kts 149°
2026-04-23 23:04 33.67966 -111.88460 5264 ft 178 kts 186°
2026-04-23 23:05 33.66883 -111.89048 5074 ft 169 kts 227°
2026-04-23 23:05 33.66475 -111.90244 4876 ft 155 kts 269°
2026-04-23 23:05 33.66857 -111.91442 4678 ft 159 kts 303°
2026-04-23 23:05 33.67571 -111.92464 4486 ft 160 kts 303°
2026-04-23 23:06 33.68294 -111.93475 4283 ft 160 kts 304°
2026-04-23 23:06 33.68941 -111.94548 4085 ft 157 kts 293°
2026-04-23 23:06 33.69282 -111.95748 3890 ft 145 kts 276°
2026-04-23 23:06 33.69379 -111.96900 3704 ft 137 kts 268°
2026-04-23 23:07 33.69406 -111.98005 3441 ft 127 kts 266°
2026-04-23 23:07 33.69419 -111.99039 3206 ft 120 kts 264°
2026-04-23 23:07 33.69329 -112.00022 3012 ft 120 kts 261°
2026-04-23 23:07 33.69231 -112.00994 2750 ft 112 kts 262°
2026-04-23 23:08 33.69153 -112.01914 2576 ft 110 kts 262°
2026-04-23 23:08 33.69092 -112.02778 2375 ft 96 kts 264°
2026-04-23 23:08 33.69021 -112.03566 2159 ft 94 kts 264°
2026-04-23 23:08 33.68987 -112.04352 2035 ft 96 kts 264°
2026-04-23 23:09 33.68935 -112.05153 1922 ft 96 kts 267°
2026-04-23 23:09 33.68891 -112.05944 1746 ft 94 kts 268°
2026-04-23 23:09 33.68851 -112.06708 1593 ft 90 kts 268°
2026-04-23 23:09 33.68811 -112.07455 1485 ft 87 kts 268°
2026-04-23 23:10 33.68775 -112.08072 1468 ft 59 kts 266°
2026-04-23 23:10 33.68749 -112.08431 1461 ft 15 kts 234°
2026-04-23 23:10 33.68678 -112.08496 1462 ft 11 kts 212°
2026-04-23 23:10 33.68623 -112.08508 1463 ft 5 kts 174°
2026-04-23 23:11 33.68585 -112.08524 1463 ft 8 kts 259°
2026-04-23 23:11 33.68599 -112.08556 1462 ft 4 kts
2026-04-23 23:11 33.68604 -112.08556 1462 ft 0 kts 354°